Weather History for Worland, WY

Change the Weather History Date:

Saturday, December 8, 2012

  Actual Average Record
Temperature  
Mean Temperature 23 °F 19 °F  
Max Temperature 32 °F 32 °F 54 °F (1970)
Min Temperature 13 °F 6 °F -34 °F (1972)
Degree Days  
Heating Degree Days 42 46  
Month to date heating degree days 238 358  
Since 1 July heating degree days 1630 2250  
Cooling Degree Days 0 0  
Month to date cooling degree days 0 0  
Year to date cooling degree days 901 535  
Moisture  
Dew Point 18 °F    
Average Humidity 75    
Maximum Humidity 92    
Minimum Humidity 58    
Precipitation  
Precipitation 0.01 in 0.01 in 0.10 in (2007)
Month to date precipitation 0.03 0.07  
Year to date precipitation 2.68 7.41  
Sea Level Pressure  
Sea Level Pressure 29.86 in    
Wind  
Wind Speed 9 mph (NNW)    
Max Wind Speed 31 mph    
Max Gust Speed 39 mph    
Visibility 8 miles    
Events Fog , Snow    
T = Trace of Precipitation, MM = Missing Value Source: NWS Daily Summary

Daily Weather History Graph

Daily Weather History Graph

Search for Another Location

Airport:

Trip Planner

Search our weather history database for the weather conditions in past years. The results will help you decide how hot, cold, wet, or windy it might be!

Date:

Astronomy

Dec. 08, 2012 Rise Set
Actual Time 7:34 AM MST 4:33 PM MST
Civil Twilight 7:01 AM MST 5:06 PM MST
Nautical Twilight 6:25 AM MST 5:42 PM MST
Astronomical Twilight 5:50 AM MST 6:17 PM MST
Moon 1:53 AM MST (12/8) 1:13 PM MST (12/8)
Length of Visible Light 10h 05m
Length of Day
8h 59m
Waning Crescent, 27% of the Moon is Illuminated
Dec 8
Waning Crescent
Dec 13
New
Dec 19
First Quarter
Dec 28
Full
Jan 4
Last Quarter

Hourly Weather History & Observations

Time (MST) Temp. Windchill Dew Point Humidity Pressure Visibility Wind Dir Wind Speed Gust Speed Precip Events Conditions
12:53 AM 26.1 °F 19.4 °F 19.9 °F 78% 29.74 in 10.0 mi SW 5.8 mph - N/A   Clear
1:53 AM 25.0 °F - 19.9 °F 81% 29.72 in 10.0 mi Calm Calm - N/A   Clear
2:53 AM 23.0 °F - 19.9 °F 88% 29.71 in 10.0 mi Calm Calm - N/A   Clear
3:53 AM 23.0 °F 18.4 °F 19.0 °F 85% 29.70 in 10.0 mi East 3.5 mph - N/A   Clear
4:53 AM 18.0 °F 9.8 °F 15.1 °F 88% 29.70 in 10.0 mi South 5.8 mph - N/A   Clear
5:53 AM 19.0 °F 13.9 °F 16.0 °F 88% 29.70 in 10.0 mi NNE 3.5 mph - N/A   Clear
6:53 AM 21.9 °F 11.7 °F 17.1 °F 82% 29.73 in 10.0 mi NNW 9.2 mph - N/A   Partly Cloudy
7:53 AM 23.0 °F - 18.0 °F 81% 29.75 in 10.0 mi Calm Calm - N/A   Partly Cloudy
8:40 AM 26.6 °F 13.1 °F 23.0 °F 86% 29.70 in 3.0 mi NNW 19.6 mph 28.8 mph 0.00 in Snow Light Snow
8:42 AM 26.6 °F 12.7 °F 23.0 °F 86% 29.70 in 1.8 mi North 20.7 mph 28.8 mph 0.00 in Snow Light Snow
8:45 AM 26.6 °F 13.8 °F 23.0 °F 86% 29.70 in 0.8 mi North 17.3 mph 26.5 mph 0.00 in Snow Light Snow
8:50 AM 26.6 °F 15.7 °F 24.8 °F 93% 29.69 in 0.2 mi North 12.7 mph 23.0 mph 0.00 in Fog , Snow Snow
8:53 AM 25.0 °F 13.6 °F 24.1 °F 96% 29.79 in 0.2 mi North 12.7 mph 23.0 mph 0.00 in Fog , Snow Snow
9:11 AM 26.6 °F 15.7 °F 24.8 °F 93% 29.69 in 0.8 mi North 12.7 mph - 0.01 in Snow Light Snow
9:14 AM 26.6 °F 16.2 °F 24.8 °F 93% 29.69 in 2.0 mi North 11.5 mph - 0.01 in Snow Light Snow
9:21 AM 26.6 °F 16.8 °F 23.0 °F 86% 29.69 in 9.0 mi North 10.4 mph - 0.01 in   Overcast
9:29 AM 26.6 °F 15.7 °F 23.0 °F 86% 29.70 in 10.0 mi NNW 12.7 mph - 0.01 in   Overcast
9:53 AM 26.1 °F 20.5 °F 23.0 °F 88% 29.81 in 10.0 mi NW 4.6 mph - 0.01 in   Overcast
10:53 AM 27.0 °F 20.5 °F 24.1 °F 89% 29.82 in 10.0 mi West 5.8 mph - N/A   Mostly Cloudy
11:53 AM 28.0 °F 22.8 °F 23.0 °F 81% 29.83 in 10.0 mi West 4.6 mph - N/A   Clear
12:53 PM 28.0 °F 18.6 °F 18.0 °F 66% 29.86 in 2.5 mi North 10.4 mph 20.7 mph 0.00 in Snow Light Snow
1:03 PM 28.4 °F 19.7 °F 17.6 °F 64% 29.76 in 9.0 mi NW 9.2 mph - 0.00 in   Overcast
1:53 PM 28.9 °F 16.5 °F 17.1 °F 61% 29.89 in 10.0 mi North 18.4 mph 28.8 mph 0.00 in   Overcast
2:53 PM 25.0 °F 8.4 °F 18.0 °F 75% 29.96 in 10.0 mi NW 28.8 mph 36.8 mph 0.00 in   Overcast
3:53 PM 23.0 °F 9.2 °F 16.0 °F 74% 30.01 in 10.0 mi NNW 17.3 mph 25.3 mph N/A   Overcast
4:53 PM 21.9 °F 7.8 °F 16.0 °F 78% 30.08 in 10.0 mi NNW 17.3 mph 27.6 mph N/A   Overcast
5:53 PM 21.0 °F 14.6 °F 16.0 °F 81% 30.12 in 10.0 mi North 4.6 mph - N/A   Overcast
6:53 PM 19.9 °F 10.1 °F 15.1 °F 81% 30.14 in 10.0 mi NW 8.1 mph - N/A   Overcast
7:53 PM 19.0 °F 9.0 °F 12.0 °F 74% 30.18 in 10.0 mi NNW 8.1 mph - N/A   Overcast
8:53 PM 18.0 °F 4.8 °F 9.0 °F 68% 30.20 in 10.0 mi NW 12.7 mph - N/A   Overcast
9:53 PM 17.1 °F 5.0 °F 8.1 °F 68% 30.22 in 10.0 mi NW 10.4 mph - N/A   Overcast
10:53 PM 15.1 °F -1.1 °F 8.1 °F 74% 30.24 in 10.0 mi NW 17.3 mph - N/A   Overcast
11:53 PM 12.9 °F 2.6 °F 6.1 °F 74% 30.27 in 10.0 mi WNW 6.9 mph - N/A   Clear